Location: SAPM � Hemmingford
(45.0500°N, 73.5833°W)
Time: 11:38:57
(UTC-04:00)

Daily predictions for brighter satellites

Satellite Brightness Start Highest point End
(mag) Time Altitude Azimuth Time Altitude Azimuth Time Altitude Azimuth
Cosmos 1763 Rocket 3.8 20:54:34 10° S 20:59:37 47° ESE 21:04:40 10° NNE
Cosmos 304 Rocket 4.3 20:54:58 10° SSW 20:59:44 66° WNW 21:04:33 10° NNE
Cosmos 2298 Rocket 4.3 20:55:12 10° NNW 21:00:26 56° ENE 21:05:37 10° SE
Cosmos 1455 Rocket 3.9 20:58:30 10° N 21:02:31 34° ENE 21:06:31 10° SE
Cosmos 841 Rocket 4.1 21:01:22 10° SSE 21:06:09 37° ESE 21:10:59 10° NE
BREEZE-M DEB (TANK) 3.6 21:06:48 10° W 21:09:09 18° SW 21:10:45 10° S
deb Kosmos-1763 4.1 21:05:56 10° SSW 21:09:39 89° NW 21:13:22 10° NNE
BREEZE-M DEB (TANK) 3.6 21:08:20 10° W 21:10:18 25° SSW 21:13:18 10° SSE
Cosmos 1378 Rocket 4.4 21:06:21 10° SSW 21:10:35 55° WNW 21:14:50 10° N
Cosmos 2360 Rocket 2.7 21:06:09 10° NNW 21:11:37 47° ENE 21:17:02 10° SE
USA 234 3.4 21:06:23 10° ENE 21:12:45 51° SE 21:19:05 10° SSW
USA 32 4.4 21:08:05 10° N 21:13:09 47° E 21:18:10 10° SSE
Cosmos 1980 Rocket 4.1 21:09:22 10° NW 21:13:58 26° WSW 21:18:33 10° SSW
Cosmos 2219 Rocket 4.0 21:10:36 10° N 21:14:28 19° NE 21:18:20 10° E
Cosmos 1975 Rocket 3.0 21:11:22 10° S 21:15:41 81° E 21:20:01 10° N
Okean 1 Rocket 4.4 21:11:45 10° NNW 21:15:49 40° W 21:19:53 10° SSW
ERS-2 3.6 21:12:50 10° SSW 21:16:15 36° W 21:19:42 10° NNW
NOSS 3-2 (A) 4.0 21:10:20 10° SW 21:16:15 67° NW 21:22:55 10° NE
Abrixas rocket 2.2 21:13:45 10° WSW 21:16:58 84° NNW 21:20:13 10° ENE
Cosmos 1975 3.7 21:13:37 10° NNW 21:17:33 51° W 21:21:26 10° S
Cosmos 1666 3.3 21:14:04 10° NNW 21:17:53 59° W 21:21:42 10° S
USA 186 4.4 21:16:26 10° SW 21:19:00 21° W 21:21:41 10° NW
Meteor 1-19 Rocket 4.4 21:15:55 10° S 21:21:51 82° E 21:27:46 10° NNE
NOSS 3-2 (C) 3.7 21:16:56 10° SW 21:22:55 80° NW 21:29:37 10° NE
ISS -2.2 21:20:28 10° W 21:23:33 37° NNW 21:26:38 10° NE
Tiangong 2 1.2 21:21:40 10° WSW 21:24:46 55° S 21:27:52 10° E
Cosmos 2084 3.5 21:21:11 10° SW 21:25:29 81° NW 21:29:34 10° NE
Meteor 2-9 Rocket 4.1 21:21:08 10° N 21:26:30 77° E 21:31:56 10° SSE
Shenzhou-11 Module 2.8 21:24:38 10° W 21:27:24 34° SSW 21:29:32 14° SE
MetOp-A 4.2 21:24:01 10° SSE 21:29:20 72° ENE 21:34:42 10° N
Cosmos 1544 Rocket 3.6 21:25:40 10° N 21:30:06 67° E 21:34:32 10° SSE
Cosmos 292 Rocket 3.8 21:25:52 10° S 21:30:31 56° ESE 21:35:11 10° NNE
ERS-1 Rocket 3.3 21:27:43 11° SE 21:32:21 50° ENE 21:37:13 10° N
ATLAS CENTAUR R/B 4.4 21:25:38 10° SW 21:32:31 85° SE 21:54:30 10° NE
Cosmos 1743 3.9 21:29:32 10° NNW 21:33:10 41° W 21:36:46 10° SSW
CENTAUR R/B 2.5 21:33:12 10° SSW 21:39:06 67° ESE 21:45:56 10° NE
Iridium 2 4.0 21:35:28 10° S 21:39:16 70° W 21:43:07 10° N
SJ 16-02 1.9 21:35:50 10° N 21:40:08 45° ENE 21:43:26 16° SE
Cosmos 2333 Rocket 3.7 21:36:16 10° N 21:40:56 25° NE 21:45:36 10° ESE
Helios 1B rocket 4.0 21:38:09 10° NE 21:41:10 19° E 21:42:54 15° SE
CZ-4C R/B 3.5 21:36:48 10° NNW 21:43:33 48° NE 21:50:36 12° ESE
COSMOS 2428 3.6 21:38:57 10° NNW 21:44:13 37° NE 21:48:38 14° ESE
Cosmos 1356 3.4 21:42:12 10° S 21:45:37 62° E 21:49:04 10° NNE
Meteor 1-23 Rocket 4.4 21:40:25 10° S 21:45:49 54° E 21:51:14 10° NNE
Cosmos 1814 Rocket 4.2 21:40:52 10° SSW 21:46:07 76° WNW 21:51:28 10° NNE
Cosmos 1536 Rocket 3.7 21:44:47 10° S 21:49:07 56° E 21:53:30 10° NNE
SPOT 1/Viking Rocket 4.1 21:45:41 15° SE 21:49:38 45° ENE 21:54:33 10° N
Resurs 01 Rocket 3.9 21:48:57 10° SW 21:52:18 21° W 21:55:40 10° NW
H-2A R/B 2.0 21:48:25 12° SSE 21:53:02 87° WSW 21:58:09 10° NNW
Cosmos 1833 4.2 21:47:36 10° SSW 21:53:19 74° ESE 21:59:00 10° NNE
Cosmos 1125 Rocket 3.9 21:48:53 10° NNW 21:54:03 53° ENE 21:57:45 18° SE
ATLAS 3B R/B 4.4 21:48:23 10° WSW 21:54:52 37° NW 22:01:09 10° NNE
Meteor 2-4 Rocket 3.9 21:49:57 10° SSW 21:55:24 76° WNW 22:01:03 10° N
SL-08 RB Rocket 3.8 21:52:37 13° S 21:56:43 79° WSW 22:01:19 10° NNW
Nadezhda 4 Rocket 4.3 21:52:33 10° N 21:58:46 56° ENE 22:03:30 18° SSE
Aureole 2 Rocket 3.2 21:56:05 10° NW 21:58:48 35° WSW 22:00:42 15° SSW
Lacrosse 5 rocket 1.4 21:55:29 10° NW 21:59:50 76° SW 22:02:25 22° SE
ARGOS 3.6 21:56:38 10° S 22:01:57 60° W 22:07:20 10° NNW
Cosmos 1515 3.6 22:00:43 11° S 22:04:26 89° WNW 22:08:17 10° N
Cosmos 2322 Rocket 3.7 22:01:29 10° NW 22:06:19 30° WSW 22:11:08 10° SSW
Cosmos 2227 Rocket 4.1 22:05:57 11° E 22:06:27 11° E 22:07:53 10° E
Cosmos 2322 3.7 22:01:07 10° NNW 22:06:53 89° NE 22:10:59 20° SSE
Cosmos 2237 Rocket 3.8 22:05:52 10° N 22:10:28 24° NE 22:14:39 11° E
DMSP B5D2-2 4.1 22:06:22 10° NNE 22:11:39 66° ESE 22:16:12 14° S
SL-16 R/B 4.0 22:11:54 10° NW 22:16:23 24° WSW 22:20:50 10° SSW
Cosmos 1066 Rocket 4.5 22:16:42 22° SSE 22:19:53 47° E 22:25:07 10° NNE
CARTOSAT-1 4.0 22:19:05 26° SE 22:21:13 49° ENE 22:25:24 10° N
Landsat 7 3.8 22:19:00 25° SSE 22:21:47 70° ENE 22:26:32 10° N
Cosmos 1340 Rocket 4.3 22:20:27 10° SW 22:24:14 37° WNW 22:28:04 10° N
BREEZE-M R/B 3.6 22:25:34 10° W 22:28:32 34° NNW 22:30:49 10° ENE
Cosmos 1025 Rocket 3.0 22:27:27 25° S 22:29:54 71° E 22:34:17 10° NNE
Cosmos 540 Rocket 3.7 22:25:06 10° SSW 22:30:15 70° WNW 22:35:27 10° NNE
Cosmos 2034 Rocket 4.2 22:29:37 10° SSW 22:35:44 70° W 22:41:55 10° N
Cosmos 1606 Rocket 4.1 22:33:17 10° N 22:37:34 45° ENE 22:39:09 32° SE
Cosmos 2219 3.5 22:34:42 24° S 22:37:56 49° ESE 22:43:28 10° NE
Cosmos 1544 3.2 22:36:31 10° N 22:40:12 61° E 22:41:11 43° SE
SPOT 5 3.1 22:37:54 24° S 22:40:26 58° W 22:45:01 10° NNW
Terra 1.8 22:38:20 31° SSE 22:40:34 71° ENE 22:45:20 10° N
Meteor 1-22 Rocket 4.4 22:35:59 10° N 22:41:13 51° ENE 22:43:33 30° SE
Cosmos 1766 3.9 22:41:42 10° N 22:45:30 41° ENE 22:46:26 35° ESE
Spot 1 3.9 22:44:11 36° SSE 22:45:47 86° WSW 22:49:52 10° NNW
Intercosmos 25 4.3 22:52:55 32° ESE 22:53:13 32° E 22:56:23 10° NNE
Cosmos 2195 Rocket 4.5 22:47:21 10° N 22:53:31 73° E 22:56:37 31° SSE
Abrixas rocket 3.3 22:50:30 10° WNW 22:53:37 43° N 22:55:58 16° ENE
Helios 1A 4.1 22:51:28 21° SSW 22:53:39 36° W 22:57:32 10° NNW
Cosmos 1627 Rocket 4.5 22:47:56 10° N 22:54:07 70° E 22:57:06 32° SSE
CZ-2C R/B 3.2 22:48:52 10° NNE 22:54:14 43° E 22:56:06 32° SE
Okean 2 4.3 22:52:12 18° SSW 22:55:05 48° WNW 22:59:09 10° N
Cosmos 2360 Rocket 3.7 22:50:37 10° NW 22:55:21 28° WSW 22:58:58 15° SSW
USA 234 3.9 22:49:24 10° NE 22:55:50 59° NNW 23:02:15 10° WSW
YAOGAN 11 4.1 22:55:17 40° SSE 22:56:54 82° ENE 23:01:28 10° NNW
BREEZE M DEB (TANK) 4.4 22:52:28 10° WNW 22:57:12 19° WSW 22:58:38 16° SW
Cosmos 2219 Rocket 2.1 22:53:34 10° NNW 22:59:11 87° WSW 23:01:38 35° SSE
ISS -1.5 22:57:50 10° NW 23:00:36 25° N 23:03:23 10° ENE
Mayak 1.1 22:59:35 10° ENE 23:00:22 11° E 23:00:22 11° E
Tiangong 2 2.3 22:58:17 10° W 23:00:16 30° WSW 23:00:16 30° WSW
Cosmos 2084 Rocket 4.3 22:57:49 10° NNW 23:01:36 37° NE 23:03:01 27° E
Cosmos 1634 Rocket 4.0 22:58:16 27° S 23:01:54 80° E 23:08:16 10° N
H-2A R/B 4.4 23:06:27 11° E 23:08:05 13° ENE 23:10:05 10° NNE
Cosmos 1356 Rocket 4.4 23:05:19 19° SW 23:08:05 44° WNW 23:12:14 10° N
Spot 4 4.2 23:09:03 38° SE 23:10:35 55° ENE 23:15:20 10° N
COSMOS 2455 3.4 23:10:59 35° SE 23:12:11 38° ESE 23:17:42 10° NE
ASTRO F (AKARI) 4.3 23:09:21 10° NNE 23:12:38 82° WNW 23:12:55 72° SW
Nimbus 7 Rocket 4.3 23:07:43 10° NNE 23:13:39 89° ESE 23:16:59 28° SSW
Cosmos 1892 Rocket 3.4 23:14:30 52° SSE 23:15:26 73° E 23:19:48 10° NNE
Helios 1B rocket 3.7 23:12:44 10° N 23:16:37 39° WNW 23:19:16 18° SW
SJ 16-02 3.5 23:15:16 10° NW 23:18:21 19° W 23:20:27 14° SW
CZ-2C R/B 3.3 23:16:09 36° S 23:18:24 73° WSW 23:24:05 10° NNW
Cosmos 192 4.2 23:16:53 38° SSW 23:18:47 85° ESE 23:23:44 10° NNE
Cosmos 1805 3.1 23:16:10 10° N 23:20:06 73° E 23:20:32 64° SE
Cosmos 1842 3.2 23:20:57 61° ESE 23:21:11 63° E 23:25:03 10° NNE
Cosmos 2228 2.9 23:20:38 10° N 23:24:57 89° WSW 23:25:44 59° S
Cosmos 2333 Rocket 2.4 23:20:01 10° NNW 23:25:39 62° WSW 23:27:41 39° S
Cosmos 1538 Rocket 4.0 23:24:21 46° SSE 23:25:41 62° ESE 23:30:53 10° NNE
Cosmos 1470 4.1 23:22:31 10° NNE 23:25:54 27° ENE 23:26:07 27° E
SL-16 R/B 3.3 23:22:56 10° NNW 23:28:11 37° NE 23:30:55 23° ESE
COSMOS 2428 3.7 23:23:17 10° NW 23:28:26 37° WSW 23:30:38 27° SSW
Okean 1-7 Rocket 4.3 23:27:08 29° SW 23:29:10 50° WNW 23:33:37 10° N
CENTAUR R/B 4.3 23:24:38 10° W 23:30:20 34° NNW 23:36:50 10° NNE
CZ-4C R/B 3.4 23:25:21 10° NW 23:32:20 50° WSW 23:35:47 32° S
Cosmos 1726 Rocket 3.9 23:28:30 10° NNW 23:32:51 57° W 23:33:54 44° SW
Cosmos 1980 3.6 23:31:47 10° NNW 23:37:28 81° WSW 23:39:12 47° SSE
Lacrosse 5 rocket 3.8 23:37:22 10° WSW 23:38:05 11° WSW 23:38:05 11° WSW
COBE Rocket 3.9 23:35:58 10° NNE 23:40:37 58° E 23:41:17 53° SE
Cosmos 2180 Rocket 4.5 23:38:13 40° S 23:40:39 78° E 23:46:56 10° N
ERBS 3.0 23:40:51 10° NW 23:44:09 48° NE 23:44:10 48° NE
Cosmos 2297 Rocket 2.2 23:44:24 48° S 23:45:51 66° ESE 23:51:29 10° NNE
Cosmos 1953 2.5 23:43:45 10° N 23:47:42 56° E 23:47:46 56° E
Cosmos 1707 4.0 23:49:50 31° ENE 23:49:50 31° ENE 23:52:54 10° NNE
Cosmos 2227 Rocket 2.1 23:47:43 45° S 23:49:29 78° ESE 23:55:10 10° NNE
Cosmos 2058 Rocket 3.5 23:45:33 10° NNW 23:49:58 54° W 23:50:47 47° SW
SL-19 R/B 4.5 23:47:09 10° NNE 23:53:17 65° ESE 23:54:58 46° SSE
